GW5298 Weather Reports


time (UTC)temp
F
wind
direction
speed
knots
gust
knots
rain 1hr
in
rain 24hr
in
rain mn
in
humidity
%
barometer
mb
20260506175915 59 340 1.7 1.7 0.00 0.00 0.00 64 965.0
20260506175418 59 342 2.6 2.6 0.00 0.00 0.00 60 964.0
20260506174915 58 341 1.7 1.7 0.00 0.00 0.00 61 964.0
20260506174416 57 338 0.9 1.7 0.00 0.00 0.00 66 965.0
20260506173916 57 340 0.9 1.7 0.00 0.00 0.00 65 965.0
20260506173416 57 340 0.9 1.7 0.00 0.00 0.00 66 965.0
20260506172915 57 338 0.9 0.9 0.00 0.00 0.00 67 965.0
20260506172417 56 340 0.9 2.6 0.00 0.00 0.00 69 965.0
20260506171915 56 344 1.7 2.6 0.00 0.00 0.00 69 965.0
20260506171415 57 344 1.7 2.6 0.00 0.00 0.00 69 965.0
20260506170916 56 341 1.7 2.6 0.00 0.00 0.00 68 965.0
20260506170415 57 345 2.6 2.6 0.00 0.00 0.00 64 965.0
20260506165917 56 342 1.7 1.7 0.00 0.00 0.00 63 965.0
20260506165415 56 344 1.7 2.6 0.00 0.00 0.00 67 965.0
20260506164922 57 341 1.7 1.7 0.00 0.00 0.00 63 965.0
20260506164415 56 342 1.7 2.6 0.00 0.00 0.00 65 965.0
20260506163916 57 347 3.5 5.2 0.00 0.00 0.00 68 965.0
20260506163416 59 343 0.9 2.6 0.00 0.00 0.00 67 965.0
20260506162915 57 345 2.6 2.6 0.00 0.00 0.00 66 965.0
20260506162421 57 343 2.6 2.6 0.00 0.00 0.00 68 966.0
20260506161916 58 344 2.6 2.6 0.00 0.00 0.00 64 966.0
20260506161415 59 339 0.9 1.7 0.00 0.00 0.00 59 965.0
20260506160915 56 341 0.9 1.7 0.00 0.00 0.00 63 965.0
20260506160415 55 347 3.5 5.2 0.00 0.00 0.00 70 965.0
20260506155915 56 352 4.3 5.2 0.00 0.00 0.00 70 965.0
20260506155415 58 347 3.5 4.3 0.00 0.00 0.00 65 965.0
20260506154915 58 333 0.9 0.9 0.00 0.00 0.00 61 965.0
20260506154415 56 333 0.9 0.9 0.00 0.00 0.00 63 965.0
20260506153428 56 337 1.7 1.7 0.00 0.00 0.00 62 965.0
20260506152916 58 332 0.0 0.0 0.00 0.00 0.00 54 966.0
20260506152416 58 333 0.0 0.0 0.00 0.00 0.00 57 965.0
20260506151916 56 333 0.0 0.9 0.00 0.00 0.00 60 966.0
20260506151415 56 333 0.9 1.7 0.00 0.00 0.00 59 965.0
20260506150915 54 329 0.0 0.0 0.00 0.00 0.00 60 965.0
20260506150416 55 329 0.0 0.9 0.00 0.00 0.00 59 966.0
20260506145923 55 329 0.0 1.7 0.00 0.00 0.00 58 966.0
20260506145415 55 329 0.9 0.9 0.00 0.00 0.00 58 966.0
20260506144916 56 329 0.0 1.7 0.00 0.00 0.00 59 966.0
20260506144415 54 329 1.7 1.7 0.00 0.00 0.00 61 966.0
20260506143915 54 329 0.9 0.9 0.00 0.00 0.00 61 966.0
20260506143415 54 330 0.9 1.7 0.00 0.00 0.00 60 966.0
20260506142916 55 330 0.0 0.9 0.00 0.00 0.00 61 965.0
20260506142416 54 331 0.9 1.7 0.00 0.00 0.00 58 966.0
20260506141917 54 329 0.0 0.9 0.00 0.00 0.00 58 966.0
20260506141415 53 328 0.0 1.7 0.00 0.00 0.00 59 966.0
20260506140916 52 330 0.0 0.9 0.00 0.00 0.00 62 966.0
20260506140417 48 328 0.0 0.9 0.00 0.00 0.00 69 966.0
20260506135916 47 328 0.0 0.9 0.00 0.00 0.00 71 966.0
20260506135415 47 328 0.0 0.9 0.00 0.00 0.00 71 966.0
20260506134915 47 328 0.0 0.9 0.00 0.00 0.00 71 966.0
20260506134417 48 328 0.0 0.9 0.00 0.00 0.00 68 966.0
20260506133917 48 328 0.0 0.9 0.00 0.00 0.00 69 966.0
20260506133416 45 328 0.0 0.9 0.00 0.00 0.00 73 966.0
20260506132916 45 328 0.0 0.0 0.00 0.00 0.00 76 966.0
20260506132416 45 328 0.0 0.0 0.00 0.00 0.00 75 966.0
20260506131915 46 328 0.0 0.0 0.00 0.00 0.00 75 966.0
20260506131415 46 328 0.0 0.0 0.00 0.00 0.00 72 965.0
20260506130916 46 328 0.0 0.0 0.00 0.00 0.00 73 965.0
20260506130416 46 328 0.0 0.0 0.00 0.00 0.00 73 965.0
20260506125916 46 328 0.0 0.0 0.00 0.00 0.00 73 966.0
20260506125423 46 328 0.0 0.0 0.00 0.00 0.00 71 965.0
20260506124916 46 328 0.0 0.9 0.00 0.00 0.00 73 965.0
20260506124415 46 327 0.0 0.9 0.00 0.00 0.00 73 966.0
20260506123915 45 328 0.0 0.0 0.00 0.00 0.00 76 965.0
20260506123415 45 328 0.0 0.9 0.00 0.00 0.00 76 965.0
20260506122916 46 328 0.0 0.0 0.00 0.00 0.00 74 965.0
20260506122416 45 328 0.0 0.9 0.00 0.00 0.00 73 965.0
20260506121915 45 328 0.0 0.9 0.00 0.00 0.00 76 965.0
20260506121416 46 328 0.0 0.9 0.00 0.00 0.00 73 965.0
20260506120916 45 328 0.0 0.0 0.00 0.00 0.00 74 965.0
20260506120416 46 328 0.0 0.0 0.00 0.00 0.00 73 965.0
20260506115915 45 328 0.0 0.9 0.00 0.00 0.00 73 965.0
20260506115416 46 328 0.0 0.0 0.00 0.00 0.00 73 965.0
20260506114915 46 328 0.0 0.0 0.00 0.00 0.00 72 965.0
20260506114415 46 327 0.0 0.9 0.00 0.00 0.00 73 965.0
20260506113916 45 327 0.9 0.9 0.00 0.00 0.00 75 965.0
20260506113415 47 328 0.0 0.9 0.00 0.00 0.00 71 965.0
20260506112915 46 328 0.0 0.0 0.00 0.00 0.00 72 965.0
20260506112415 45 327 0.0 0.9 0.00 0.00 0.00 74 965.0
20260506111916 46 328 0.0 0.0 0.00 0.00 0.00 73 965.0
20260506111416 45 327 0.0 0.9 0.00 0.00 0.00 75 965.0
20260506110916 47 328 0.9 1.7 0.00 0.00 0.00 74 965.0
20260506110415 46 328 0.0 0.0 0.00 0.00 0.00 73 965.0
20260506105915 46 328 0.0 0.0 0.00 0.00 0.00 75 965.0
20260506105416 46 328 0.0 0.0 0.00 0.00 0.00 73 965.0
20260506104915 45 328 0.0 0.0 0.00 0.00 0.00 76 965.0
20260506104416 46 328 0.0 0.9 0.00 0.00 0.00 75 965.0
20260506103916 47 328 0.0 0.0 0.00 0.00 0.00 72 965.0
20260506103415 48 328 0.0 0.0 0.00 0.00 0.00 68 965.0
20260506102915 49 328 0.0 0.9 0.00 0.00 0.00 66 965.0
20260506102416 49 328 0.0 0.0 0.00 0.00 0.00 66 965.0
20260506101916 50 328 0.0 0.9 0.00 0.00 0.00 65 965.0
20260506101416 50 328 0.0 0.9 0.00 0.00 0.00 66 965.0
20260506100915 49 328 0.0 0.0 0.00 0.00 0.00 66 965.0
20260506100416 49 328 0.0 0.9 0.00 0.00 0.00 66 965.0
20260506095915 49 328 0.0 0.9 0.00 0.00 0.00 66 965.0
20260506095415 49 328 0.0 0.0 0.00 0.00 0.00 67 965.0
20260506094915 48 328 0.0 0.9 0.00 0.00 0.00 68 964.0
20260506094415 48 328 0.0 0.0 0.00 0.00 0.00 70 965.0
20260506093916 49 328 0.0 0.9 0.00 0.00 0.00 69 965.0
20260506093415 49 328 0.0 0.0 0.00 0.00 0.00 67 965.0
20260506092916 49 327 0.9 0.9 0.00 0.00 0.00 65 965.0
20260506092416 49 327 0.9 0.9 0.00 0.00 0.00 67 965.0
20260506091915 48 328 0.0 0.9 0.00 0.00 0.00 69 965.0
20260506091415 47 328 0.0 0.0 0.00 0.00 0.00 71 965.0
20260506090915 48 328 0.0 0.0 0.00 0.00 0.00 71 964.0
20260506090415 50 328 0.0 0.0 0.00 0.00 0.00 66 965.0
20260506085915 49 328 0.0 0.9 0.00 0.00 0.00 69 965.0
20260506085415 47 328 0.0 0.9 0.00 0.00 0.00 73 965.0
20260506084915 48 328 0.9 0.9 0.00 0.00 0.00 73 964.0
20260506084415 48 328 0.9 0.9 0.00 0.00 0.00 72 964.0
20260506083915 49 328 0.0 0.0 0.00 0.00 0.00 69 964.0
20260506083415 49 328 0.0 0.9 0.00 0.00 0.00 67 964.0
20260506082915 49 328 0.0 0.9 0.00 0.00 0.00 68 964.0
20260506082415 48 328 0.0 0.0 0.00 0.00 0.00 70 964.0
20260506081915 49 328 0.0 0.9 0.00 0.00 0.00 71 964.0
20260506081415 48 328 0.0 0.9 0.00 0.00 0.00 71 964.0
20260506080915 48 329 0.0 0.0 0.00 0.00 0.00 72 964.0
20260506080415 49 328 0.9 0.9 0.00 0.00 0.00 70 964.0
20260506073415 48 328 0.0 0.9 0.00 0.00 0.00 74 964.0
20260506072915 48 328 0.0 0.0 0.00 0.00 0.00 71 964.0
20260506072415 49 328 0.0 0.0 0.00 0.00 0.00 72 964.0
20260506071915 49 328 0.0 0.0 0.00 0.00 0.00 74 964.0
20260506071415 49 328 0.0 0.0 0.00 0.00 0.00 72 964.0
20260506070915 49 328 0.0 0.0 0.00 0.00 0.00 71 964.0
20260506070416 49 328 0.0 0.0 0.00 0.00 0.00 69 964.0
20260506062415 51 329 0.0 0.9 0.00 0.00 0.00 69 964.0
20260506061916 50 329 0.0 0.9 0.00 0.00 0.00 69 964.0
20260506061415 51 330 0.0 0.0 0.00 0.00 0.00 69 964.0
20260506060915 52 329 0.0 0.9 0.00 0.00 0.00 67 964.0
20260506060416 53 329 0.0 0.0 0.00 0.00 0.00 66 964.0
20260506051415 52 330 0.0 0.9 0.00 0.00 0.00 66 963.0
20260506050915 53 330 0.0 0.9 0.00 0.00 0.00 67 963.0
20260506050415 53 330 0.0 0.9 0.00 0.00 0.00 66 963.0
20260506044915 55 330 0.0 0.0 0.00 0.00 0.00 61 963.0
20260506044416 55 330 0.0 0.0 0.00 0.00 0.00 63 963.0
20260506043915 56 330 0.0 0.9 0.00 0.00 0.00 60 963.0
20260506043415 57 329 0.0 0.9 0.00 0.00 0.00 58 963.0
20260506042915 57 329 0.0 0.0 0.00 0.00 0.00 58 963.0
20260506042415 57 329 0.0 0.9 0.00 0.00 0.00 57 963.0
20260506041917 56 329 0.0 0.0 0.00 0.00 0.00 58 963.0
20260506041415 57 328 0.0 0.9 0.00 0.00 0.00 58 963.0
20260506040917 57 328 0.0 0.9 0.00 0.00 0.00 58 963.0
20260506040415 56 329 0.0 0.0 0.00 0.00 0.00 62 963.0
20260506035915 58 329 0.9 1.7 0.00 0.00 0.00 60 963.0
20260506035416 57 328 0.0 0.9 0.00 0.00 0.00 57 962.0
20260506034916 57 330 0.0 0.0 0.00 0.00 0.00 57 962.0
20260506034415 57 328 0.0 0.0 0.00 0.00 0.00 61 962.0
20260506033916 58 328 0.0 0.9 0.00 0.00 0.00 61 962.0
20260506033416 58 328 0.0 0.9 0.00 0.00 0.00 58 962.0
20260506032916 59 328 0.0 0.0 0.00 0.00 0.00 58 963.0
20260506032416 59 327 0.0 0.9 0.00 0.00 0.00 59 963.0
20260506031915 59 328 0.0 0.0 0.00 0.00 0.00 59 962.0
20260506031415 60 328 0.0 0.0 0.00 0.00 0.00 54 962.0
20260506030915 60 328 0.0 0.0 0.00 0.00 0.00 54 962.0
20260506030415 61 328 0.0 0.0 0.00 0.00 0.00 53 962.0
20260506025915 62 328 0.0 0.0 0.00 0.00 0.00 53 962.0
20260506025415 62 328 0.0 0.0 0.00 0.00 0.00 50 962.0
20260506024915 63 328 0.0 0.0 0.00 0.00 0.00 47 962.0
20260506024419 63 328 0.0 0.0 0.00 0.00 0.00 48 962.0
20260506023915 63 328 0.0 0.0 0.00 0.00 0.00 46 962.0
20260506023416 63 328 0.0 0.0 0.00 0.00 0.00 46 962.0
20260506022916 64 328 0.0 0.0 0.00 0.00 0.00 47 962.0
20260506022415 64 328 0.0 0.0 0.00 0.00 0.00 47 962.0
20260506021917 64 328 0.0 0.0 0.00 0.00 0.00 47 962.0
20260506021415 65 328 0.0 0.0 0.00 0.00 0.00 45 962.0
20260506020915 65 329 0.0 0.0 0.00 0.00 0.00 45 962.0
20260506020415 65 329 0.0 0.0 0.00 0.00 0.00 43 962.0
20260506015916 66 329 0.0 0.0 0.00 0.00 0.00 45 962.0
20260506015415 66 329 0.0 0.0 0.00 0.00 0.00 42 962.0
20260506014916 66 329 0.0 0.0 0.00 0.00 0.00 44 962.0
20260506014415 67 329 0.0 0.0 0.00 0.00 0.00 45 962.0
20260506013916 68 329 0.0 0.9 0.00 0.00 0.00 42 962.0
20260506013415 68 329 0.9 0.9 0.00 0.00 0.00 40 962.0
20260506012915 69 328 0.0 0.9 0.00 0.00 0.00 37 962.0
20260506012417 70 328 0.9 0.9 0.00 0.00 0.00 37 962.0
20260506011915 70 334 0.9 0.9 0.00 0.00 0.00 31 962.0
20260506011415 70 329 0.0 1.7 0.00 0.00 0.00 35 962.0
20260506010916 69 331 0.0 0.0 0.00 0.00 0.00 33 963.0
20260506010416 68 329 0.0 0.0 0.00 0.00 0.00 41 962.0
20260506005915 69 334 0.0 1.7 0.00 0.00 0.00 43 963.0
20260506005415 69 343 2.6 2.6 0.00 0.00 0.00 40 962.0
20260506004915 70 334 0.0 1.7 0.00 0.00 0.00 44 963.0
20260506004415 69 336 1.7 2.6 0.00 0.00 0.00 52 962.0
20260506003915 75 340 0.0 1.7 0.00 0.00 0.00 30 962.0
20260506003415 76 338 0.9 2.6 0.00 0.00 0.00 26 962.0
20260506002917 76 350 3.5 4.3 0.00 0.00 0.00 27 962.0
20260506002415 76 340 2.6 4.3 0.00 0.00 0.00 26 963.0
20260506001916 77 332 0.0 2.6 0.00 0.00 0.00 29 963.0
20260506001415 76 332 1.7 4.3 0.00 0.00 0.00 24 963.0
20260506000915 76 334 1.7 4.3 0.00 0.00 0.00 25 963.0
20260506000416 75 353 5.2 7.0 0.00 0.00 0.00 25 962.0
20260505235916 75 346 1.7 2.6 0.00 0.00 0.00 29 962.0
20260505235415 75 347 2.6 4.3 0.00 0.00 0.00 26 963.0
20260505234915 75 357 4.3 6.1 0.00 0.00 0.00 31 963.0
20260505234415 75 326 1.7 5.2 0.00 0.00 0.00 33 963.0
20260505233915 77 352 2.6 6.1 0.00 0.00 0.00 24 963.0
20260505233415 76 347 1.7 5.2 0.00 0.00 0.00 24 963.0
20260505232918 75 353 4.3 6.1 0.00 0.00 0.00 28 963.0
20260505232416 76 70 6.1 8.7 0.00 0.00 0.00 25 963.0
20260505231916 76 337 3.5 7.0 0.00 0.00 0.00 27 963.0
20260505231416 76 351 3.5 6.1 0.00 0.00 0.00 29 963.0
20260505230915 75 352 3.5 6.1 0.00 0.00 0.00 28 963.0
20260505230415 75 334 4.3 6.1 0.00 0.00 0.00 25 964.0
20260505225915 75 346 2.6 6.1 0.00 0.00 0.00 31 964.0
20260505225416 74 337 1.7 5.2 0.00 0.00 0.00 26 964.0
20260505224915 73 348 2.6 4.3 0.00 0.00 0.00 32 964.0
20260505224415 72 342 2.6 4.3 0.00 0.00 0.00 36 964.0
20260505223915 73 349 4.3 6.1 0.00 0.00 0.00 35 964.0
20260505223415 71 343 3.5 5.2 0.00 0.00 0.00 35 964.0
20260505222915 74 349 3.5 6.1 0.00 0.00 0.00 31 964.0
20260505222415 74 337 1.7 4.3 0.00 0.00 0.00 41 964.0
20260505221916 72 349 3.5 5.2 0.00 0.00 0.00 32 964.0
20260505221416 72 346 3.5 5.2 0.00 0.00 0.00 34 964.0
20260505220916 72 341 2.6 5.2 0.00 0.00 0.00 38 964.0
20260505220415 73 345 4.3 6.1 0.00 0.00 0.00 31 964.0
20260505215915 71 348 3.5 5.2 0.00 0.00 0.00 35 964.0
20260505215417 70 343 3.5 4.3 0.00 0.00 0.00 40 965.0
20260505214915 69 345 2.6 5.2 0.00 0.00 0.00 38 965.0
20260505214416 69 344 1.7 2.6 0.00 0.00 0.00 39 964.0
20260505213915 69 339 2.6 4.3 0.00 0.00 0.00 37 964.0
20260505213415 70 352 4.3 5.2 0.00 0.00 0.00 32 965.0
20260505212915 69 346 3.5 4.3 0.00 0.00 0.00 34 965.0
20260505212415 69 343 2.6 2.6 0.00 0.00 0.00 37 965.0
20260505211915 70 348 2.6 2.6 0.00 0.00 0.00 41 965.0
20260505211415 73 346 3.5 5.2 0.00 0.00 0.00 30 965.0
20260505210916 73 342 2.6 5.2 0.00 0.00 0.00 33 965.0
20260505210415 72 345 2.6 5.2 0.00 0.00 0.00 26 965.0
20260505205916 72 350 4.3 5.2 0.00 0.00 0.00 30 965.0
20260505205416 70 347 3.5 6.1 0.00 0.00 0.00 33 965.0
20260505204916 70 347 4.3 5.2 0.00 0.00 0.00 33 965.0
20260505204415 69 352 4.3 5.2 0.00 0.00 0.00 34 965.0
20260505203915 70 345 4.3 6.1 0.00 0.00 0.00 35 965.0
20260505203415 71 349 4.3 6.1 0.00 0.00 0.00 33 965.0
20260505202915 70 346 3.5 6.1 0.00 0.00 0.00 31 966.0
20260505202415 69 342 2.6 4.3 0.00 0.00 0.00 40 966.0
20260505201917 70 343 2.6 5.2 0.00 0.00 0.00 35 966.0
20260505201416 70 343 3.5 5.2 0.00 0.00 0.00 35 965.0
20260505200915 68 347 3.5 5.2 0.00 0.00 0.00 38 966.0
20260505200415 69 346 3.5 4.3 0.00 0.00 0.00 40 966.0
20260505195915 69 340 2.6 2.6 0.00 0.00 0.00 38 966.0
20260505195415 68 337 2.6 4.3 0.00 0.00 0.00 37 966.0
20260505194916 67 335 0.9 1.7 0.00 0.00 0.00 42 966.0
20260505194416 68 335 0.9 1.7 0.00 0.00 0.00 39 966.0
20260505193917 67 340 2.6 2.6 0.00 0.00 0.00 36 966.0
20260505193415 66 336 1.7 1.7 0.00 0.00 0.00 42 966.0
20260505192915 67 336 1.7 2.6 0.00 0.00 0.00 39 967.0
20260505192416 66 337 2.6 2.6 0.00 0.00 0.00 38 966.0
20260505191915 67 337 1.7 2.6 0.00 0.00 0.00 38 966.0
20260505191415 66 338 2.6 2.6 0.00 0.00 0.00 40 966.0
20260505190915 64 335 0.9 1.7 0.00 0.00 0.00 49 967.0
20260505190415 64 338 2.6 2.6 0.00 0.00 0.00 46 967.0
20260505185916 63 340 2.6 4.3 0.00 0.00 0.00 41 967.0
20260505185416 63 335 1.7 2.6 0.00 0.00 0.00 43 967.0
20260505184915 63 337 2.6 4.3 0.00 0.00 0.00 43 967.0
20260505184415 63 338 1.7 2.6 0.00 0.00 0.00 43 967.0
20260505183915 63 336 1.7 2.6 0.00 0.00 0.00 42 967.0
20260505183415 63 340 2.6 2.6 0.00 0.00 0.00 43 967.0
20260505182915 62 337 1.7 2.6 0.00 0.00 0.00 45 967.0
20260505182416 62 337 2.6 2.6 0.00 0.00 0.00 47 967.0
20260505181915 62 338 1.7 2.6 0.00 0.00 0.00 47 967.0
20260505181415 61 338 2.6 4.3 0.00 0.00 0.00 50 968.0
20260505180917 61 338 1.7 2.6 0.00 0.00 0.00 50 967.0
20260505180415 60 337 2.6 2.6 0.00 0.00 0.00 52 967.0